MOLNIYA 3-8

Last updated on Jan. 25, 2020, 4:43 a.m. UTC

1 10455U 77105A   20024.36626458  .00000635  00000-0 -27586-3 0  9999
2 10455  62.2822 131.4950 7216738 275.3649  13.5422  2.00819196309580
UTC
Height (km)
Latitude
Longitude
Inclination
Orbital Period
UTC large
Height (km)
Speed (km/s)
/
Latitude / Longitude
Inclination (degrees)
Orbital Period (minutes)
Azimuth
Elevation
Range (km)
Doppler Factor
iOS Compass Heading
iOS Angle

Next 30 passes for location: Hong Kong

Rise time Rise Azimuth (degrees) Set time Set Azimuth (degrees) Duration Max altitude (degrees)

No matching passes for this satellites